GW4545 Weather Reports


Display with metric or nautical units.
time (UTC)temp
F
wind
direction
speed
MPH
gust
MPH
rain 1hr
in
rain 24hr
in
rain mn
in
humidity
%
barometer
mb
20260901143059 56 0 0.0 0.0 0.00 0.00 0.00 89 1012.6
20260901141554 56 0 0.0 0.0 0.00 0.00 0.00 89 1012.4
20260901140058 56 0 0.0 0.0 0.00 0.00 0.00 89 1012.3
20260901134553 55 0 0.0 0.0 0.00 0.00 0.00 90 1012.3
20260901133048 55 0 0.0 0.0 0.00 0.00 0.00 90 1012.2
20260901131552 55 0 0.0 0.0 0.00 0.00 0.00 90 1012.1
20260901130054 55 0 0.0 0.0 0.00 0.00 0.00 90 1012.1
20260901124550 54 0 0.0 0.0 0.00 0.00 0.00 91 1012.2
20260901123057 54 0 0.0 1.0 0.00 0.00 0.00 91 1012.2
20260901121604 54 0 0.0 0.0 0.00 0.00 0.00 91 1012.1
20260901120056 54 0 0.0 0.0 0.00 0.00 0.00 91 1011.9
20260901114547 53 0 0.0 0.0 0.00 0.00 0.00 91 1012.0
20260901113100 53 188 0.0 2.0 0.00 0.00 0.00 91 1012.0
20260901111550 53 0 0.0 0.0 0.00 0.00 0.00 91 1011.8
20260901110105 53 0 0.0 1.0 0.00 0.00 0.00 88 1011.8
20260901104559 54 188 0.0 3.0 0.00 0.00 0.00 89 1011.6
20260901103053 54 171 0.0 4.0 0.00 0.00 0.00 89 1011.5
20260901101550 55 174 2.0 3.0 0.00 0.00 0.00 86 1011.6
20260901094553 56 0 1.0 4.0 0.00 0.00 0.00 87 1011.3
20260901093054 56 0 0.0 2.0 0.00 0.00 0.00 87 1011.2
20260901091550 56 0 0.0 0.0 0.00 0.00 0.00 86 1011.2
20260901090100 56 140 0.0 2.0 0.00 0.00 0.00 86 1011.3
20260901084559 56 0 0.0 2.0 0.00 0.00 0.00 87 1011.3
20260901083050 56 0 0.0 2.0 0.00 0.00 0.00 86 1011.3
20260901081552 56 0 0.0 0.0 0.00 0.00 0.00 85 1011.1
20260901080059 56 0 0.0 0.0 0.00 0.00 0.00 85 1011.0
20260901074558 57 140 1.0 2.0 0.00 0.00 0.00 84 1010.9
20260901073052 58 0 0.0 2.0 0.00 0.00 0.00 82 1010.7
20260901071550 58 140 1.0 3.0 0.00 0.00 0.00 82 1010.5
20260901070059 59 28 0.0 1.0 0.00 0.00 0.00 79 1010.3
20260901064555 61 46 0.0 3.0 0.00 0.00 0.00 79 1010.2
20260901063110 61 0 0.0 2.0 0.00 0.00 0.00 77 1010.0
20260901061549 62 5 0.0 4.0 0.00 0.00 0.00 76 1009.8
20260901060057 63 5 1.0 5.0 0.00 0.00 0.00 74 1009.9
20260901054551 64 348 2.0 6.0 0.00 0.00 0.00 72 1009.8
20260901053101 65 300 3.0 10.0 0.00 0.00 0.00 71 1009.9
20260901051611 65 305 3.0 12.0 0.00 0.00 0.00 70 1009.6
20260901050050 66 314 1.0 9.0 0.00 0.00 0.00 68 1009.7
20260901044552 66 329 3.0 9.0 0.00 0.00 0.00 68 1009.7
20260901043058 66 0 0.0 5.0 0.00 0.00 0.00 69 1009.6
20260901041552 67 314 1.0 3.0 0.00 0.00 0.00 68 1009.4
20260901040106 68 9 0.0 3.0 0.00 0.00 0.00 65 1009.1
20260901034603 69 210 1.0 3.0 0.00 0.00 0.00 63 1008.9
20260901033114 70 296 1.0 3.0 0.00 0.00 0.00 62 1008.3
20260901031557 71 310 1.0 5.0 0.00 0.00 0.00 60 1008.5
20260901030055 72 285 1.0 6.0 0.00 0.00 0.00 58 1008.6
20260901024610 73 302 4.0 11.0 0.00 0.00 0.00 56 1008.6
20260901023057 75 272 4.0 9.0 0.00 0.00 0.00 54 1008.3
20260901021608 77 279 3.0 10.0 0.00 0.00 0.00 51 1008.3
20260901020105 79 333 2.0 8.0 0.00 0.00 0.00 47 1008.3
20260901014619 82 279 4.0 10.0 0.00 0.00 0.00 42 1008.2
20260901013057 86 189 1.0 3.0 0.00 0.00 0.00 27 1008.0
20260901011552 86 0 0.0 4.0 0.00 0.00 0.00 30 1008.2
20260901010059 86 0 0.0 5.0 0.00 0.00 0.00 30 1008.2
20260901004617 86 0 0.0 7.0 0.00 0.00 0.00 28 1008.1
20260901003055 86 128 1.0 4.0 0.00 0.00 0.00 28 1008.1
20260901001555 86 142 1.0 4.0 0.00 0.00 0.00 28 1008.1
20260831234557 86 55 2.0 5.0 0.00 0.00 0.00 28 1008.2
20260831233052 86 105 1.0 6.0 0.00 0.00 0.00 26 1008.3
20260831231556 86 88 1.0 4.0 0.00 0.00 0.00 28 1008.5
20260831230058 86 199 1.0 6.0 0.00 0.00 0.00 28 1008.7
20260831224550 85 82 2.0 4.0 0.00 0.00 0.00 29 1008.7
20260831223105 85 201 2.0 7.0 0.00 0.00 0.00 28 1008.8
20260831221557 83 100 3.0 8.0 0.00 0.00 0.00 30 1009.1
20260831220057 83 0 2.0 8.0 0.00 0.00 0.00 30 1009.3
20260831214550 84 90 2.0 7.0 0.00 0.00 0.00 30 1009.4
20260831213057 82 65 1.0 6.0 0.00 0.00 0.00 32 1009.5
20260831211555 82 79 4.0 10.0 0.00 0.00 0.00 35 1009.6
20260831204549 82 119 4.0 7.0 0.00 0.00 0.00 33 1010.0
20260831203059 81 88 2.0 8.0 0.00 0.00 0.00 36 1010.2
20260831201552 80 161 1.0 9.0 0.00 0.00 0.00 36 1010.4
20260831200056 80 142 4.0 8.0 0.00 0.00 0.00 37 1010.7
20260831194635 80 92 2.0 7.0 0.00 0.00 0.00 37 1010.7
20260831193057 79 284 2.0 6.0 0.00 0.00 0.00 39 1010.8
20260831191553 78 122 3.0 6.0 0.00 0.00 0.00 39 1011.0
20260831190110 77 0 1.0 5.0 0.00 0.00 0.00 43 1011.2
20260831184602 77 86 3.0 8.0 0.00 0.00 0.00 43 1011.5
20260831183052 75 234 2.0 6.0 0.00 0.00 0.00 46 1011.3
20260831181554 75 0 2.0 7.0 0.00 0.00 0.00 49 1011.7
20260831174634 72 30 3.0 8.0 0.00 0.00 0.00 54 1011.8
20260831173105 71 285 2.0 9.0 0.00 0.00 0.00 57 1012.0
20260831171559 71 267 2.0 6.0 0.00 0.00 0.00 57 1011.9
20260831170059 68 11 3.0 9.0 0.00 0.00 0.00 59 1011.9
20260831164557 67 313 3.0 11.0 0.00 0.00 0.00 61 1012.1
20260831163107 66 292 4.0 14.0 0.00 0.00 0.00 62 1012.2
20260831161603 66 325 3.0 10.0 0.00 0.00 0.00 64 1012.4
20260831160055 65 5 2.0 8.0 0.00 0.00 0.00 65 1012.5
20260831154624 64 319 2.0 9.0 0.00 0.00 0.00 65 1012.5
20260831153118 63 290 2.0 6.0 0.00 0.00 0.00 68 1012.5
20260831151554 62 343 2.0 8.0 0.00 0.00 0.00 70 1012.7
20260831150059 60 308 0.0 4.0 0.00 0.00 0.00 71 1012.6
20260831144600 59 295 1.0 6.0 0.00 0.00 0.00 75 1012.8